Vertical_Velocity
-1 -2 -2 -2 -0 0 -0 -1 -2 1 -1 1 -0 -1 1 1 -3 1 3 1 2 3 0 -0 -1 1 -4 1 -0 -1 -10 -3 11 3 14 -2 -3 -3 -1 -5 -4 1 7 -5 -5
1 -1 -1 -3 -2 -1 -1 -1 1 -0 -2 -1 -1 -2 -6 -2 -1 -6 -3 3 1 -5 2 4 -0 -2 -6 2 1 -3 -16 17 9 2 -6 -8 1 -1 -9 -3 1 -5 -2 -3 14
-1 -0 -1 -2 -1 -2 -1 -1 -2 -3 -3 1 -2 -2 -4 -7 -5 14 2 -2 1 3 -4 2 0 2 -2 -4 5 8 -3 6 9 0 -5 4 -4 3 -6 -1 -3 1 -1 -1 -2
1 1 -1 -1 -2 -0 -1 -2 0 -2 -0 -3 -4 -6 -4 -6 -9 4 1 -1 0 1 0 -0 1 -2 1 -4 -2 -20 4 3 10 3 -6 5 3 -6 -7 8 -1 -5 -1 0 -3
-0 -3 -3 -2 -0 -1 -2 -3 -1 -2 -0 -0 -1 -3 -3 1 3 8 -1 1 -2 -2 -0 -7 2 -1 1 2 -3 -7 8 -0 3 2 0 6 -0 10 -10 -2 -0 3 -2 -4 -2
-0 -1 -2 -2 -3 -1 -2 -2 -1 -3 -3 0 -4 -4 -3 -4 7 -5 -2 -6 -1 -1 -2 -3 2 -4 -0 4 -1 5 -7 4 3 5 7 -7 4 -17 19 8 -2 -1 -1 -0 -1
-1 -4 -3 -1 -1 2 -2 -1 -3 -2 -2 -2 -1 -4 3 -13 2 -0 -6 -9 -2 -2 -2 -1 -2 1 1 0 -1 2 -6 -0 7 10 2 -3 -5 -10 12 -2 -2 -1 -1 -1 1
3 1 -2 -2 -1 -3 -0 -1 -1 -1 -1 -1 -1 0 -4 3 -10 -5 1 2 -0 -5 -2 -4 1 1 5 -3 -2 4 -10 -1 16 -2 8 -7 10 7 4 -2 -0 -0 -2 0 4
-2 -2 -1 0 -2 -2 -3 -4 -2 1 -0 -1 -1 -1 -10 -7 -1 -1 2 -1 -2 -4 -5 1 3 -3 1 1 0 8 3 -4 5 -3 2 -8 4 6 1 3 -1 -1 3 1 2
-1 -2 -1 -2 -4 -0 -2 -1 -2 -1 -3 -3 -3 -3 4 4 -3 -2 -2 -3 -2 -0 -6 1 1 -6 4 -3 -1 10 -2 1 4 3 -7 -0 -1 2 5 -2 3 -0 1 -1 -1
-1 1 -0 1 -2 -2 -0 -1 -4 -5 -3 -1 1 4 1 -7 -3 -6 3 -1 -3 -4 1 -0 -4 -1 -6 -5 5 2 0 3 5 -3 -3 1 -0 1 3 -1 0 7 -0 3 1
0 4 -0 -0 1 -1 1 -1 -3 -2 -7 -0 -0 1 0 -4 1 -1 -2 -1 -2 -5 -1 -10 5 -2 -4 -0 1 4 0 3 -4 -4 -7 1 1 -2 1 4 1 1 1 3 1
-0 1 -0 3 1 2 -1 3 2 -0 -4 0 3 1 -3 -3 -1 1 -1 2 -6 4 -7 -5 7 3 -3 -0 3 2 1 -1 -4 4 1 -8 4 7 -4 -2 3 1 2 -1 2
1 -1 1 1 2 1 0 1 1 -1 -1 2 -5 -4 -2 -5 -1 -1 -2 -2 -1 0 -3 -7 5 -1 -1 0 1 4 4 -4 -0 -7 -2 7 -11 -1 -1 -2 -4 2 1 5 3
0 -0 2 1 1 1 2 -0 2 3 6 1 -0 -2 0 -6 -2 2 3 0 -3 -1 -3 6 -4 1 -1 4 0 1 -0 1 1 -2 -12 6 -9 12 1 0 3 2 2 4 2
2 1 3 1 -1 1 1 3 -0 3 -5 -3 -1 1 -0 -2 -4 -3 -3 -1 -1 -2 -4 2 -3 0 3 -4 3 -1 0 -3 -1 -0 -7 8 4 1 17 -5 7 -0 1 1 1
1 2 3 1 2 3 -3 7 0 8 7 -1 -2 -2 2 -2 3 -6 -6 -3 2 -5 -0 -6 -0 -1 1 1 -1 3 -0 -4 -1 -4 -7 -1 3 -5 9 1 -0 3 -1 2 4
6 5 -4 3 -0 1 -3 2 3 -2 3 5 -1 -6 -1 1 1 -5 1 -3 -5 -2 -2 6 4 -1 1 2 -0 -2 1 -1 10 11 7 37 -1 3 3 -1 -1 -3 2 -3 -2
6 1 -3 -2 -0 2 1 -2 0 -2 3 -2 -0 -5 6 -9 -1 3 -3 -0 6 -2 -5 0 -2 -13 -1 0 3 -0 2 1 -3 -4 -7 -1 -1 -1 -2 2 -2 -4 -0 0 2
3 2 -3 -0 4 -2 0 0 -8 -8 -4 1 -4 -3 2 5 -13 -1 4 -1 1 1 0 8 -10 -2 -8 2 1 -1 -1 12 1 -4 -3 3 12 23 4 2 -3 -2 2 1 1
6 -1 -0 2 -3 3 -2 0 -6 0 -2 1 -2 -7 -2 2 -6 1 -2 10 -11 2 -4 4 -2 -0 -2 -2 0 3 -0 -2 -3 3 9 3 20 -3 -0 -4 -3 -0 0 0 1
3 -1 -0 2 -2 2 -0 -2 -6 -3 -1 -3 -2 -3 -4 -0 -2 1 1 8 -16 -2 6 0 2 -2 -6 -1 3 -4 -3 1 9 1 3 4 -6 -1 5 -1 2 -0 2 1 1
-1 1 -0 2 -1 1 -3 -1 -4 -2 -5 -6 -7 -1 -7 -3 -7 0 -3 1 3 1 3 3 -3 2 -1 -5 -4 -9 -1 -8 5 -1 -0 4 14 4 -0 -1 -2 0 1 2 1
-3 4 1 -0 -0 -2 -3 -1 -7 -2 -5 -8 -5 -6 -3 -5 -7 -6 -5 -2 2 -4 -6 2 0 -2 -7 26 2 28 -3 -2 2 -1 4 8 4 3 -2 5 1 -4 -3 -1 -1
1 1 2 1 -3 -1 -1 -2 -6 -6 -5 -3 -6 -4 -4 -4 -5 -6 2 1 2 2 -3 -0 -7 -2 -2 -7 -1 -4 23 4 8 11 -1 7 -1 -0 -5 -2 1 3 9 -2 0
0 -0 0 -0 -4 -2 1 -2 -6 -4 -1 -3 -4 -4 -5 -5 -8 -4 -5 -3 3 0 15 -1 -2 9 -2 1 -2 -1 7 -2 2 -5 -1 -2 8 3 -7 -4 -4 -2 2 10 3
0 0 -3 -0 -1 -3 1 -5 -3 0 1 0 -2 -2 -7 -6 -4 -3 -2 -3 -4 -0 3 1 6 7 -8 8 -0 -7 5 3 4 -2 -3 0 -9 4 5 0 -0 -4 -4 1 19
Height
5780 5781 5780 5780 5779 5777 5776 5774 5773 5772 5770 5769 5768 5766 5765 5764 5762 5758 5757 5755 5754 5753 5754 5755 5755 5754 5754 5756 5757 5758 5757 5761 5763 5763 5763 5757 5760 5760 5762 5760 5761 5764 5768 5767 5768
5772 5772 5772 5772 5771 5770 5768 5767 5766 5764 5763 5761 5759 5757 5756 5754 5751 5749 5746 5744 5744 5742 5742 5743 5743 5743 5744 5744 5744 5745 5748 5752 5753 5753 5750 5747 5750 5751 5752 5753 5754 5755 5758 5759 5762
5762 5762 5762 5763 5762 5761 5760 5759 5758 5755 5753 5751 5749 5748 5746 5744 5741 5739 5738 5734 5734 5733 5732 5732 5732 5732 5733 5733 5731 5732 5737 5740 5740 5738 5738 5740 5740 5741 5743 5743 5747 5748 5749 5751 5753
5753 5752 5751 5752 5752 5751 5750 5749 5747 5745 5743 5741 5739 5737 5736 5732 5731 5729 5727 5726 5724 5723 5723 5721 5721 5721 5721 5721 5721 5718 5722 5725 5728 5727 5726 5729 5731 5731 5734 5735 5736 5739 5743 5744 5743
5742 5742 5742 5741 5741 5740 5739 5738 5736 5734 5733 5730 5727 5725 5722 5721 5719 5718 5715 5715 5714 5713 5711 5710 5709 5708 5708 5708 5706 5706 5709 5710 5713 5715 5715 5717 5720 5722 5724 5724 5727 5732 5734 5734 5735
5729 5729 5729 5729 5729 5729 5728 5726 5724 5722 5721 5718 5715 5713 5711 5709 5708 5707 5704 5704 5701 5701 5699 5697 5696 5695 5695 5695 5695 5696 5696 5699 5701 5702 5704 5704 5708 5709 5716 5717 5719 5722 5724 5725 5727
5717 5717 5716 5716 5716 5716 5715 5713 5711 5710 5707 5706 5704 5702 5699 5696 5696 5695 5694 5692 5689 5687 5686 5686 5686 5685 5684 5683 5684 5685 5685 5686 5689 5691 5692 5692 5697 5700 5705 5707 5709 5713 5716 5716 5719
5702 5702 5703 5703 5702 5702 5701 5699 5697 5696 5694 5692 5690 5690 5689 5688 5687 5685 5681 5678 5677 5676 5678 5677 5676 5675 5674 5673 5674 5674 5673 5674 5679 5678 5681 5682 5687 5692 5693 5698 5700 5704 5707 5708 5711
5688 5689 5690 5688 5688 5688 5688 5686 5684 5684 5682 5681 5680 5679 5679 5677 5676 5673 5669 5667 5667 5668 5670 5669 5667 5666 5664 5664 5662 5661 5661 5664 5668 5668 5671 5673 5677 5682 5681 5689 5691 5693 5698 5700 5702
5673 5674 5676 5676 5676 5675 5674 5674 5673 5672 5673 5672 5669 5669 5667 5667 5664 5662 5659 5659 5660 5661 5661 5659 5657 5656 5655 5653 5653 5655 5653 5657 5659 5660 5662 5665 5665 5671 5675 5677 5682 5684 5689 5692 5693
5659 5661 5662 5662 5663 5664 5664 5663 5664 5663 5661 5659 5659 5656 5656 5656 5654 5653 5653 5653 5652 5653 5652 5650 5649 5648 5646 5644 5646 5645 5645 5648 5651 5652 5652 5655 5657 5662 5666 5668 5672 5678 5681 5684 5686
5648 5649 5650 5651 5652 5652 5652 5651 5650 5651 5649 5648 5648 5648 5647 5647 5648 5646 5647 5646 5646 5644 5643 5643 5642 5640 5638 5639 5639 5640 5640 5641 5642 5642 5642 5647 5647 5652 5657 5661 5664 5669 5672 5675 5676
5636 5638 5639 5641 5641 5641 5641 5641 5639 5638 5640 5640 5640 5641 5641 5641 5640 5640 5640 5640 5639 5637 5636 5635 5636 5633 5633 5633 5633 5633 5633 5635 5634 5638 5639 5639 5640 5647 5648 5652 5657 5660 5663 5665 5667
5625 5628 5629 5631 5633 5632 5633 5633 5632 5632 5631 5633 5633 5633 5632 5632 5634 5633 5632 5634 5632 5631 5629 5628 5631 5627 5627 5627 5627 5627 5629 5628 5630 5630 5632 5633 5629 5637 5641 5645 5649 5651 5654 5657 5659
5615 5618 5620 5621 5623 5624 5626 5626 5626 5626 5627 5626 5625 5625 5626 5627 5627 5628 5626 5625 5625 5624 5623 5623 5622 5622 5622 5622 5620 5622 5619 5623 5623 5623 5623 5627 5627 5633 5636 5639 5640 5642 5646 5649 5652
5605 5608 5610 5612 5613 5615 5616 5618 5619 5622 5617 5620 5619 5619 5618 5618 5619 5619 5620 5619 5618 5617 5616 5616 5614 5615 5616 5615 5615 5615 5615 5616 5616 5617 5615 5624 5623 5628 5634 5629 5633 5634 5638 5641 5645
5595 5598 5600 5602 5605 5606 5608 5610 5612 5612 5611 5611 5611 5612 5611 5610 5611 5611 5611 5611 5611 5610 5610 5608 5608 5608 5609 5609 5610 5609 5609 5611 5614 5612 5615 5618 5618 5624 5624 5623 5624 5627 5630 5632 5636
5585 5588 5589 5591 5594 5598 5600 5603 5603 5602 5603 5603 5603 5603 5603 5601 5603 5601 5602 5602 5603 5602 5603 5604 5607 5601 5603 5604 5605 5605 5605 5606 5609 5611 5612 5611 5615 5617 5617 5618 5619 5620 5621 5623 5628
5576 5578 5581 5584 5587 5590 5593 5595 5594 5595 5596 5596 5595 5595 5594 5591 5594 5592 5593 5594 5595 5594 5596 5597 5600 5593 5595 5599 5601 5601 5600 5603 5602 5605 5606 5609 5612 5612 5610 5611 5613 5613 5614 5618 5623
5569 5572 5575 5578 5581 5584 5586 5587 5586 5588 5587 5587 5586 5586 5585 5580 5582 5582 5582 5581 5582 5584 5585 5589 5587 5591 5588 5591 5595 5596 5598 5599 5598 5599 5601 5605 5607 5604 5606 5605 5606 5606 5609 5613 5617
5563 5567 5570 5573 5576 5579 5579 5579 5579 5579 5579 5578 5576 5574 5573 5570 5567 5567 5569 5566 5566 5571 5574 5577 5577 5582 5584 5582 5587 5590 5592 5593 5594 5595 5596 5598 5599 5599 5600 5600 5601 5603 5603 5607 5612
5558 5562 5565 5568 5572 5571 5572 5571 5571 5569 5569 5567 5564 5561 5557 5552 5548 5547 5548 5550 5548 5554 5561 5564 5568 5571 5576 5579 5582 5584 5585 5588 5588 5592 5591 5592 5592 5594 5595 5596 5596 5597 5598 5601 5606
5553 5558 5561 5563 5564 5564 5564 5563 5561 5560 5558 5555 5551 5547 5540 5535 5533 5533 5531 5532 5535 5538 5546 5552 5559 5563 5567 5573 5574 5575 5580 5583 5583 5584 5586 5587 5590 5589 5590 5590 5591 5592 5594 5597 5600
5550 5553 5555 5556 5557 5557 5556 5553 5552 5550 5547 5543 5539 5534 5530 5528 5525 5524 5521 5521 5521 5523 5530 5536 5546 5553 5559 5565 5566 5568 5570 5573 5577 5579 5580 5582 5583 5583 5582 5585 5587 5588 5587 5590 5594
5545 5547 5549 5550 5550 5549 5548 5545 5543 5541 5538 5534 5530 5527 5525 5523 5519 5517 5515 5513 5512 5513 5518 5528 5536 5542 5548 5552 5556 5561 5563 5567 5569 5571 5574 5577 5577 5578 5577 5580 5581 5583 5583 5584 5587
5541 5542 5543 5543 5543 5542 5540 5539 5535 5532 5530 5527 5525 5523 5519 5516 5514 5512 5510 5508 5506 5505 5512 5519 5530 5535 5539 5545 5549 5554 5555 5559 5562 5565 5567 5570 5574 5573 5574 5577 5578 5578 5579 5581 5582
5535 5536 5537 5537 5537 5535 5534 5531 5527 5525 5523 5521 5520 5517 5513 5510 5507 5506 5505 5504 5502 5501 5504 5512 5521 5528 5535 5540 5543 5547 5551 5553 5556 5559 5562 5565 5566 5568 5571 5572 5575 5575 5576 5575 5577